Home   Weather   Qaanaaq   Past weeks

Flag for Greenland Past Weather in Qaanaaq, Greenland — Yesterday and Last 2 Weeks

Now
1 °F

Sunny.


Feels Like: -14 °F
Forecast: -7 / 12 °F
Wind: 9 mph from East

Location: Thule A. B.

Current Time: Apr 27, 2017 at 5:26:29 am

Latest Report: Apr 27, 2017 at 4:58 am


Visibility: N/A

Pressure: 29.45 "Hg

Humidity: 71%

Dew Point: -6 °F

Location of QaanaaqLocation

Past Weather in Qaanaaq — Graph

°F

Qaanaaq Temperature Yesterday

Maximum temperature yesterday: 12 °F (at 2:58 pm)
Minimum temperature yesterday: -6 °F (at 3:58 am)
Average temperature yesterday: 4 °F

High & Low Weather Summary for the Past Weeks

 TemperatureHumidityPressure
High19 °F (Apr 12, 3:58 pm)92% (Apr 19, 3:14 am)30.40 "Hg (Apr 19, 3:14 am)
Low-8 °F (Apr 17, 1:58 am)49% (Apr 18, 3:58 pm)29.37 "Hg (Apr 18, 3:58 am)
Average8 °F72%30.01 "Hg
* Reported Apr 12 3:58 am — Apr 27 3:58 am, Qaanaaq, Weather by CustomWeather, © 2017

Note: Actual official high and low records may vary slightly from our data, if they occured in-between our weather recording intervals... More about our weather records

Advertising

Qaanaaq Weather History for the Previous 24 Hours

Scroll right to see more
 ConditionsComfort  
Time TempWeatherWind HumidityBarometerVisibility
3:58 am
Thu, Apr 27
0 °FSunny.14 mph71%29.45 "HgN/A
2:58 am0 °FSunny.8 mph71%29.45 "HgN/A
1:58 am0 °FSunny.10 mph71%29.45 "HgN/A
12:58 am1 °FSunny.9 mph71%29.48 "HgN/A
11:58 pm
Wed, Apr 26
5 °FSunny.8 mph66%29.48 "HgN/A
10:58 pm7 °FSunny.9 mph66%29.45 "HgN/A
9:58 pm9 °FSunny.10 mph61%29.44 "HgN/A
8:58 pm9 °FSunny.3 mph66%29.44 "HgN/A
7:58 pm10 °FSunny.5 mph61%29.44 "HgN/A
6:58 pm11 °FSunny.3 mph59%29.45 "HgN/A
5:58 pm10 °FSunny.No wind61%29.47 "HgN/A
4:58 pm10 °FSunny.6 mph61%29.47 "HgN/A
3:58 pm12 °FSunny.No wind57%29.49 "HgN/A
2:58 pm12 °FSunny.No wind62%29.51 "HgN/A
1:58 pm10 °FSunny.No wind67%29.52 "HgN/A
12:58 pm12 °FPassing clouds.No wind61%29.54 "HgN/A
11:58 am7 °FSunny.3 mph72%29.57 "HgN/A
10:58 am5 °FSunny.3 mph78%29.59 "HgN/A
9:58 am3 °FSunny.6 mph72%29.62 "HgN/A
8:58 am1 °FSunny.6 mph71%29.65 "HgN/A
7:58 am-2 °FSunny.10 mph77%29.68 "HgN/A
6:58 am-6 °FSunny.9 mph77%29.70 "HgN/A
5:58 am-4 °FSunny.10 mph77%29.73 "HgN/A
Weather by CustomWeather, © 2017

See weather overviewHow to use our weather pages